Waarnemingen

Advertentie
Mijn weer
Terschelling/Hoorn, Nederland (6251): temperatuur & dauwpunt: 21.05.2018 07:00:00 - 27.05.2018 07:00:00 (CEST)Terschelling/Hoorn, Nederland (6251): temperatuur 5cm: 21.05.2018 07:00:00 - 27.05.2018 07:00:00 (CEST)Terschelling/Hoorn, Nederland (6251): windsnelheid & windstoten: 21.05.2018 07:00:00 - 27.05.2018 07:00:00 (CEST)Terschelling/Hoorn, Nederland (6251): windrichting: 21.05.2018 07:00:00 - 27.05.2018 07:00:00 (CEST)Terschelling/Hoorn, Nederland (6251): luchtdruk: 21.05.2018 07:00:00 - 27.05.2018 07:00:00 (CEST)Terschelling/Hoorn, Nederland (6251): zicht: 21.05.2018 07:00:00 - 27.05.2018 07:00:00 (CEST)Terschelling/Hoorn, Nederland (6251): neerslag: 21.05.2018 07:00:00 - 27.05.2018 07:00:00 (CEST)
Datum & Tijd tt [°C] td [°C] tt 5cm [°C] ff [km/u] ff [kn] fx [km/u] fx [kn] dd ppp [hPa] vv [km] rr [mm]
27.05.2018 07:00:00 16,5 14,5 16,0 22 12 25 14 ONO 1021,6 19 0,0
27.05.2018 06:00:00 15,0 13,9 13,8 14 8 22 12 O 1021,6 13 0,0
27.05.2018 05:00:00 15,0 13,6 13,9 18 10 29 16 ONO 1021,8 17 0,0
27.05.2018 04:00:00 15,4 13,8 14,6 18 10 29 16 ONO 1021,7 18 0,0
27.05.2018 03:00:00 16,5 14,6 15,4 22 12 25 14 ONO 1022,0 22 0,0
27.05.2018 02:00:00 16,9 14,7 15,9 22 12 29 16 ONO 1022,3 29 0,0
27.05.2018 01:00:00 15,8 13,3 14,6 22 12 29 16 ONO 1022,4 26 0,0
27.05.2018 00:00:00 15,3 13,1 14,4 18 10 25 14 ONO 1022,6 19 0,0
26.05.2018 23:00:00 15,6 13,0 14,7 22 12 29 16 ONO 1022,4 18 0,0
26.05.2018 22:00:00 16,6 12,9 15,7 22 12 32 18 ONO 1022,2 25 0,0
26.05.2018 21:00:00 17,7 12,9 16,7 25 14 36 19 ONO 1021,9 23 0,0
26.05.2018 20:00:00 18,1 12,9 18,0 25 14 40 21 ONO 1021,9 19 0,0
26.05.2018 19:00:00 19,4 13,7 19,6 29 16 36 19 ONO 1021,8 24 0,0
26.05.2018 18:00:00 19,9 13,8 20,6 25 14 32 18 ONO 1022,0 25 0,0
26.05.2018 17:00:00 19,6 13,6 20,8 25 14 36 19 NO 1022,2 17 0,0
26.05.2018 16:00:00 19,6 13,2 20,9 29 16 36 19 NO 1022,4 22 0,0
26.05.2018 15:00:00 20,3 13,9 21,4 25 14 36 19 NO 1022,5 31 0,0
26.05.2018 14:00:00 19,9 13,6 21,6 25 14 36 19 NO 1022,7 24 0,0
26.05.2018 13:00:00 20,3 13,7 21,6 25 14 36 19 ONO 1022,7 26 0,0
26.05.2018 12:00:00 19,4 13,3 20,5 29 16 36 19 ONO 1022,7 23 0,0
26.05.2018 11:00:00 18,4 13,0 19,8 29 16 40 21 ONO 1022,6 24 0,0
26.05.2018 10:00:00 17,8 12,4 18,5 32 18 40 21 ONO 1022,5 32 0,0
26.05.2018 09:00:00 16,6 12,9 17,2 25 14 36 19 ONO 1022,4 24 0,0
26.05.2018 08:00:00 16,5 12,9 16,3 25 14 32 18 ONO 1022,1 25 0,0
26.05.2018 07:00:00 14,8 13,0 14,7 22 12 29 16 ONO 1021,7 18 0,0
26.05.2018 06:00:00 14,0 12,7 13,0 22 12 29 16 ONO 1021,1 16 0,0
26.05.2018 05:00:00 13,3 10,0 12,5 14 8 29 16 ONO 1021,2 40 0,0
26.05.2018 04:00:00 14,7 10,6 13,9 22 12 32 18 ONO 1021,1 49 0,0
26.05.2018 03:00:00 15,2 10,5 14,3 25 14 32 18 ONO 1021,1 47 0,0
26.05.2018 02:00:00 15,0 11,5 14,3 22 12 29 16 ONO 1020,9 25 0,0
26.05.2018 01:00:00 16,2 11,5 15,6 22 12 32 18 ONO 1020,9 26 0,0
26.05.2018 00:00:00 16,2 11,3 15,5 22 12 29 16 ONO 1020,8 24 0,0
25.05.2018 23:00:00 17,3 12,3 16,4 25 14 36 19 ONO 1020,4 24 0,0
25.05.2018 22:00:00 17,0 12,6 16,1 22 12 36 19 ONO 1020,3 20 0,0
25.05.2018 21:00:00 17,5 12,9 16,6 29 16 36 19 ONO 1019,7 22 0,0
25.05.2018 20:00:00 18,3 13,6 18,1 22 12 29 16 ONO 1019,3 23 0,0
25.05.2018 19:00:00 20,6 15,5 20,0 14 8 25 14 ONO 1019,0 23 0,0
25.05.2018 18:00:00 22,2 16,4 22,3 18 10 25 14 ONO 1019,2 26 0,0
25.05.2018 17:00:00 20,7 15,8 20,1 18 10 36 19 ONO 1019,4 17 0,0
25.05.2018 16:00:00 21,8 16,0 22,5 25 14 32 18 ONO 1019,3 21 0,0
25.05.2018 15:00:00 21,2 16,4 21,4 14 8 25 14 ONO 1019,7 20 0,0
25.05.2018 14:00:00 18,2 15,2 18,8 18 10 25 14 NO 1019,9 17 0,0
25.05.2018 13:00:00 19,1 15,8 19,0 22 12 29 16 O 1019,8 19 0,0
25.05.2018 12:00:00 18,5 15,6 18,5 25 14 32 18 O 1019,9 19 0,0
25.05.2018 11:00:00 17,8 14,8 17,5 22 12 25 14 O 1019,8 24 0,0
25.05.2018 10:00:00 17,9 14,8 18,0 18 10 25 14 O 1019,4 26 0,0
25.05.2018 09:00:00 17,2 14,0 17,0 22 12 29 16 O 1019,3 36 0,0
25.05.2018 08:00:00 17,0 13,6 16,3 22 12 29 16 O 1019,1 36 0,0
25.05.2018 07:00:00 16,1 14,2 15,6 25 14 40 21 ONO 1019,0 23 0,0
25.05.2018 06:00:00 16,9 14,6 16,2 25 14 36 19 O 1018,5 29 0,0
25.05.2018 05:00:00 16,5 14,7 15,9 25 14 32 18 O 1018,5 26 0,0
25.05.2018 04:00:00 16,7 14,2 16,1 22 12 29 16 ONO 1018,7 30 0,0
25.05.2018 03:00:00 16,3 14,8 15,6 14 8 18 10 ONO 1019,1 24 0,1
25.05.2018 02:00:00 16,8 15,9 16,4 7 4 25 14 ONO 1019,5 11 0,3
25.05.2018 01:00:00 17,5 15,7 16,1 22 12 29 16 O 1019,6 21 0,0
25.05.2018 00:00:00 16,3 14,0 15,4 18 10 25 14 NO 1019,2 16 0,0
24.05.2018 23:00:00 16,3 13,9 15,8 14 8 18 10 ONO 1019,7 17 0,0
24.05.2018 22:00:00 16,1 13,5 15,6 14 8 22 12 NNO 1019,6 15 0,0
24.05.2018 21:00:00 17,2 13,9 16,8 14 8 32 18 ONO 1019,5 20 0,0
24.05.2018 20:00:00 18,5 13,3 18,1 29 16 43 23 ONO 1019,2 28 0,0
24.05.2018 19:00:00 19,3 11,9 19,3 32 18 47 25 ONO 1018,8 30 0,0
24.05.2018 18:00:00 20,2 11,6 20,3 36 19 50 27 ONO 1019,2 29 0,0
24.05.2018 17:00:00 20,9 12,7 21,5 36 19 47 25 ONO 1019,7 18 0,0
24.05.2018 16:00:00 21,9 14,1 22,4 36 19 47 25 ONO 1020,3 18 0,0
24.05.2018 15:00:00 21,2 14,6 22,0 29 16 40 21 ONO 1020,7 19 0,0
24.05.2018 14:00:00 19,9 14,3 21,2 29 16 40 21 ONO 1021,4 18 0,0
24.05.2018 13:00:00 19,0 13,4 20,2 29 16 40 21 ONO 1021,7 21 0,0
24.05.2018 12:00:00 19,3 13,0 20,4 29 16 43 23 ONO 1022,1 25 0,0
24.05.2018 11:00:00 18,7 12,5 19,8 32 18 40 21 ONO 1022,5 22 0,0
24.05.2018 10:00:00 18,0 12,9 18,9 25 14 32 18 ONO 1022,9 22 0,0
24.05.2018 09:00:00 17,2 12,2 17,9 25 14 36 19 ONO 1023,0 27 0,0
24.05.2018 08:00:00 16,0 12,1 16,0 22 12 29 16 ONO 1023,1 25 0,0
24.05.2018 07:00:00 14,5 11,7 13,9 22 12 25 14 NO 1023,4 18 0,0
24.05.2018 06:00:00 13,1 11,2 12,1 18 10 25 14 NO 1023,4 14 0,0
24.05.2018 05:00:00 13,3 11,5 12,2 18 10 29 16 NO 1023,7 14 0,0
24.05.2018 04:00:00 13,3 11,3 12,2 18 10 25 14 ONO 1023,8 15 0,0
24.05.2018 03:00:00 13,7 11,3 12,7 22 12 29 16 ONO 1023,8 15 0,0
24.05.2018 02:00:00 13,8 11,0 12,9 22 12 36 19 ONO 1023,9 17 0,0
24.05.2018 01:00:00 14,3 10,9 13,3 25 14 36 19 NO 1023,9 16 0,0
24.05.2018 00:00:00 14,0 11,1 13,0 25 14 32 18 NO 1024,2 15 0,0
23.05.2018 23:00:00 13,8 11,0 12,9 25 14 32 18 NO 1024,0 15 0,0
23.05.2018 22:00:00 13,7 10,9 12,9 25 14 36 19 NO 1023,9 15 0,0
23.05.2018 21:00:00 14,1 10,8 13,4 25 14 43 23 NO 1023,6 19 0,0
23.05.2018 20:00:00 15,2 10,6 14,7 32 18 43 23 NO 1023,3 16 0,0
23.05.2018 19:00:00 15,8 11,2 16,2 32 18 47 25 NO 1023,0 18 0,0
23.05.2018 18:00:00 17,2 11,3 17,9 32 18 47 25 NO 1022,9 22 0,0
23.05.2018 17:00:00 18,6 10,8 19,2 32 18 47 25 NO 1022,9 24 0,0
23.05.2018 16:00:00 18,0 11,4 19,0 36 19 43 23 NO 1023,0 21 0,0
23.05.2018 15:00:00 17,1 10,9 18,2 32 18 47 25 NO 1023,1 22 0,0
23.05.2018 14:00:00 16,6 11,3 17,1 29 16 40 21 NO 1023,0 23 0,0
23.05.2018 13:00:00 18,1 12,6 18,9 29 16 40 21 NO 1022,9 26 0,0
23.05.2018 12:00:00 17,1 11,5 18,5 32 18 43 23 NO 1022,7 22 0,0
23.05.2018 11:00:00 16,1 11,4 16,5 25 14 36 19 NO 1022,3 27 0,0
23.05.2018 10:00:00 16,2 11,8 16,9 29 16 36 19 NO 1021,8 25 0,0
23.05.2018 09:00:00 17,1 11,9 17,7 22 12 32 18 ONO 1021,3 23 0,0
23.05.2018 08:00:00 15,5 11,2 15,8 25 14 32 18 ONO 1020,8 33 0,0
23.05.2018 07:00:00 14,4 10,5 13,4 22 12 32 18 NO 1020,0 29 0,0
23.05.2018 06:00:00 13,0 10,8 12,1 14 8 25 14 NO 1019,5 23 0,0
23.05.2018 05:00:00 13,1 10,8 11,9 18 10 25 14 NNO 1019,1 20 0,0
23.05.2018 04:00:00 13,0 11,0 11,9 18 10 25 14 NNO 1018,8 17 0,0
23.05.2018 03:00:00 13,0 11,0 12,0 18 10 25 14 NNO 1018,6 18 0,0
23.05.2018 02:00:00 13,3 11,0 12,2 18 10 25 14 NO 1018,1 21 0,0
23.05.2018 01:00:00 13,6 11,2 12,4 18 10 29 16 NO 1018,1 19 0,0
23.05.2018 00:00:00 13,5 11,3 12,7 25 14 36 19 NNO 1018,2 16 0,0
22.05.2018 23:00:00 13,7 11,3 12,6 22 12 32 18 NNO 1017,8 16 0,0
22.05.2018 22:00:00 13,3 11,2 12,4 22 12 29 16 NNO 1017,3 17 0,0
22.05.2018 21:00:00 14,3 10,9 13,6 18 10 32 18 NNO 1016,8 23 0,0
22.05.2018 20:00:00 15,1 11,2 15,3 22 12 32 18 NNO 1016,4 25 0,0
22.05.2018 19:00:00 16,3 11,1 17,0 22 12 32 18 NNO 1016,1 23 0,0
22.05.2018 18:00:00 16,5 11,6 18,1 22 12 32 18 NNO 1016,0 22 0,0
22.05.2018 17:00:00 17,6 12,1 19,2 22 12 32 18 NNO 1015,9 22 0,0
22.05.2018 16:00:00 18,9 13,0 20,6 22 12 32 18 NNO 1015,5 22 0,0
22.05.2018 15:00:00 19,5 11,8 20,9 25 14 32 18 NNO 1015,4 21 0,0
22.05.2018 14:00:00 19,9 13,1 21,9 22 12 29 16 NNO 1015,2 25 0,0
22.05.2018 13:00:00 19,9 14,7 21,0 14 8 22 12 NO 1015,0 25 0,0
22.05.2018 12:00:00 19,7 14,1 20,0 14 8 22 12 NO 1014,8 27 0,0
22.05.2018 11:00:00 19,7 12,5 21,1 18 10 25 14 O 1014,7 27 0,0
22.05.2018 10:00:00 17,8 12,5 18,7 18 10 25 14 O 1014,5 32 0,0
22.05.2018 09:00:00 16,2 11,9 16,6 18 10 22 12 O 1014,4 36 0,0
22.05.2018 08:00:00 15,3 11,7 15,5 18 10 22 12 O 1014,2 32 0,0
22.05.2018 07:00:00 15,0 11,6 13,5 22 12 25 14 O 1014,0 29 0,0
22.05.2018 06:00:00 13,1 11,6 11,6 18 10 22 12 ONO 1013,6 28 0,0
22.05.2018 05:00:00 12,5 10,8 11,6 14 8 22 12 ONO 1013,6 28 0,0
22.05.2018 04:00:00 13,7 11,4 12,4 18 10 25 14 ONO 1013,7 33 0,0
22.05.2018 03:00:00 13,3 11,6 12,0 18 10 25 14 ONO 1013,9 21 0,0
22.05.2018 02:00:00 13,1 11,6 11,8 18 10 22 12 ONO 1014,0 20 0,0
22.05.2018 01:00:00 12,9 11,7 11,8 18 10 22 12 ONO 1014,3 17 0,0
22.05.2018 00:00:00 13,3 11,8 12,3 18 10 25 14 NO 1014,6 17 0,0
21.05.2018 23:00:00 13,1 11,2 12,3 18 10 29 16 ONO 1014,8 19 0,0
21.05.2018 22:00:00 13,8 10,8 13,0 22 12 36 19 ONO 1014,9 24 0,0
21.05.2018 21:00:00 15,1 10,3 14,4 25 14 36 19 ONO 1014,8 31 0,0
21.05.2018 20:00:00 16,5 10,7 16,3 29 16 40 21 ONO 1014,9 29 0,0
21.05.2018 19:00:00 18,0 10,9 18,2 29 16 40 21 NO 1015,2 29 0,0
21.05.2018 18:00:00 19,1 11,3 19,7 29 16 43 23 ONO 1015,4 20 0,0
21.05.2018 17:00:00 19,8 11,5 20,5 32 18 43 23 ONO 1016,0 27 0,0
21.05.2018 16:00:00 19,5 11,6 20,6 32 18 43 23 ONO 1016,6 20 0,0
21.05.2018 15:00:00 20,4 12,7 21,6 29 16 40 21 ONO 1017,1 25 0,0
21.05.2018 14:00:00 21,1 13,3 22,1 29 16 43 23 ONO 1017,4 29 0,0
21.05.2018 13:00:00 20,7 13,0 21,8 32 18 43 23 O 1018,3 21 0,0
21.05.2018 12:00:00 20,3 12,8 21,4 32 18 43 23 O 1018,7 25 0,0
21.05.2018 11:00:00 19,2 11,8 20,0 29 16 40 21 O 1019,1 30 0,0
21.05.2018 10:00:00 17,4 11,2 18,2 25 14 32 18 O 1019,5 31 0,0
21.05.2018 09:00:00 15,5 10,3 15,9 22 12 32 18 O 1020,0 37 0,0
21.05.2018 08:00:00 14,0 8,6 14,4 25 14 32 18 O 1020,2 38 0,0
21.05.2018 07:00:00 13,5 8,3 13,1 22 12 32 18 O 1020,4 33 0,0

tt = temperatuur
td = dauwpunt
tt 5cm = temperatuur 5cm
ff = windsnelheid
fx = windstoten
dd = windrichting
ppp = luchtdruk
vv = zicht
rr = neerslag

Weerstations in de omgeving